| time (UTC) | temp C | wind direction | speed KPH | gust KPH | rain 1hr cm | rain 24hr cm | rain mn cm | humidity % | barometer mb |
| 20260904170804 | 6 | 320 | 3.2 | 8.0 | 0.00 | 0.00 | 0.00 | 82 | 1020.4 |
| 20260904170305 | 6 | 281 | 4.8 | 12.9 | 0.00 | 0.00 | 0.00 | 84 | 1020.5 |
| 20260904160804 | 3 | 279 | 4.8 | 4.8 | 0.00 | 0.00 | 0.00 | 98 | 1020.5 |
| 20260904160304 | 3 | 275 | 4.8 | 9.7 | 0.00 | 0.00 | 0.00 | 99 | 1020.5 |
| 20260904150804 | 1 | 264 | 4.8 | 8.0 | 0.00 | 0.00 | 0.00 | 99 | 1020.6 |
| 20260904150304 | 1 | 210 | 4.8 | 9.7 | 0.00 | 0.00 | 0.00 | 99 | 1020.6 |
| 20260904140804 | 1 | 217 | 4.8 | 8.0 | 0.00 | 0.00 | 0.00 | 98 | 1020.8 |
| 20260904140305 | 1 | 278 | 3.2 | 9.7 | 0.00 | 0.00 | 0.00 | 98 | 1020.8 |
| 20260904130305 | 2 | 279 | 8.0 | 8.0 | 0.00 | 0.00 | 0.00 | 98 | 1020.9 |
| 20260904120805 | 1 | 127 | 3.2 | 8.0 | 0.00 | 0.00 | 0.00 | 98 | 1020.8 |
| 20260904120306 | 1 | 257 | 4.8 | 8.0 | 0.00 | 0.00 | 0.00 | 98 | 1020.7 |
| 20260904110805 | 1 | 276 | 4.8 | 8.0 | 0.00 | 0.00 | 0.00 | 98 | 1021.0 |
| 20260904110304 | 1 | 133 | 3.2 | 8.0 | 0.00 | 0.00 | 0.00 | 98 | 1021.1 |
| 20260904100804 | 1 | 275 | 4.8 | 8.0 | 0.00 | 0.00 | 0.00 | 98 | 1021.2 |
| 20260904100305 | 1 | 251 | 4.8 | 9.7 | 0.00 | 0.00 | 0.00 | 98 | 1021.3 |
| 20260904090805 | 1 | 282 | 3.2 | 8.0 | 0.00 | 0.00 | 0.00 | 97 | 1021.4 |
| 20260904090304 | 2 | 269 | 6.4 | 9.7 | 0.00 | 0.00 | 0.00 | 97 | 1021.3 |
| 20260904080805 | 2 | 281 | 8.0 | 8.0 | 0.00 | 0.00 | 0.00 | 96 | 1021.0 |
| 20260904070811 | 3 | 278 | 4.8 | 4.8 | 0.00 | 0.00 | 0.00 | 94 | 1021.0 |
| 20260904070305 | 3 | 280 | 4.8 | 8.0 | 0.00 | 0.00 | 0.00 | 94 | 1021.1 |
| 20260904060805 | 5 | 275 | 4.8 | 8.0 | 0.00 | 0.00 | 0.00 | 90 | 1021.0 |
| 20260904060305 | 5 | 274 | 8.0 | 11.3 | 0.00 | 0.00 | 0.00 | 90 | 1021.0 |
| 20260904050805 | 6 | 279 | 9.7 | 11.3 | 0.00 | 0.00 | 0.00 | 87 | 1021.0 |
| 20260904040804 | 10 | 25 | 3.2 | 4.8 | 0.00 | 0.00 | 0.00 | 73 | 1020.6 |
| 20260904040305 | 10 | 24 | 4.8 | 9.7 | 0.00 | 0.00 | 0.00 | 70 | 1020.6 |
| 20260904030804 | 12 | 159 | 0.0 | 1.6 | 0.00 | 0.00 | 0.00 | 55 | 1020.0 |
| 20260904020804 | 14 | 88 | 0.0 | 0.0 | 0.00 | 0.00 | 0.00 | 44 | 1019.9 |
| 20260904020304 | 15 | 88 | 0.0 | 4.8 | 0.00 | 0.00 | 0.00 | 43 | 1019.8 |
| 20260904010804 | 16 | 54 | 1.6 | 4.8 | 0.00 | 0.00 | 0.00 | 40 | 1020.1 |
| 20260903230804 | 13 | 312 | 0.0 | 1.6 | 0.00 | 0.00 | 0.00 | 51 | 1020.7 |
| 20260903230304 | 12 | 338 | 1.6 | 4.8 | 0.00 | 0.00 | 0.00 | 53 | 1020.7 |
| 20260903220805 | 11 | 151 | 0.0 | 3.2 | 0.00 | 0.00 | 0.00 | 57 | 1021.1 |
| 20260903220305 | 11 | 191 | 1.6 | 8.0 | 0.00 | 0.00 | 0.00 | 54 | 1021.2 |
| 20260903210804 | 11 | 277 | 3.2 | 4.8 | 0.00 | 0.00 | 0.00 | 61 | 1021.3 |
| 20260903200804 | 10 | 288 | 4.8 | 9.7 | 0.00 | 0.00 | 0.00 | 65 | 1021.7 |
| 20260903200304 | 10 | 262 | 4.8 | 14.5 | 0.00 | 0.00 | 0.00 | 66 | 1021.8 |
| 20260903190804 | 8 | 283 | 9.7 | 11.3 | 0.00 | 0.00 | 0.00 | 71 | 1021.8 |
| 20260903180804 | 7 | 263 | 3.2 | 4.8 | 0.00 | 0.00 | 0.00 | 78 | 1022.0 |
| 20260903180304 | 7 | 264 | 3.2 | 11.3 | 0.00 | 0.00 | 0.00 | 79 | 1022.1 |